This is the latest recevied weather packets stored in our database for station/object IZ8XTV-13. If no packets are shown the sender has not sent any weather packets the latest 10 day(s).
| Time | Temp. | Humidity | Pressure | Rain* | Wind** | Luminosity | Snow |
|---|---|---|---|---|---|---|---|
| 1778002101 | 18.33° C | 90% | 1016.1 hPa | 0 mm | - | - | - |
| 1778001490 | 18.33° C | 89% | 1016.1 hPa | 0 mm | - | - | - |
| 1778000878 | 18.33° C | 90% | 1016.3 hPa | 0 mm | - | - | - |
| 1777999655 | 18.89° C | 87% | 1016.4 hPa | 0 mm | - | - | - |
| 1777999043 | 18.89° C | 86% | 1016.5 hPa | 0 mm | - | - | - |
| 1777998431 | 18.89° C | 84% | 1016.3 hPa | 0 mm | - | - | - |
| 1777997817 | 18.89° C | 85% | 1016.4 hPa | 0 mm | - | - | - |
| 1777997530 | 18.89° C | 85% | 1016.5 hPa | 0 mm | - | - | - |
| 1777996918 | 19.44° C | 84% | 1016.6 hPa | 0 mm | - | - | - |
| 1777996306 | 19.44° C | 84% | 1016.7 hPa | 0 mm | - | - | - |
| 1777995694 | 19.44° C | 83% | 1016.7 hPa | 0 mm | - | - | - |
| 1777995083 | 19.44° C | 83% | 1016.8 hPa | 0 mm | - | - | - |
| 1777994470 | 19.44° C | 82% | 1016.9 hPa | 0 mm | - | - | - |
| 1777993858 | 20° C | 82% | 1016.9 hPa | 0 mm | - | - | - |
| 1777993246 | 20° C | 81% | 1016.9 hPa | 0 mm | - | - | - |
| 1777992635 | 20° C | 80% | 1016.9 hPa | 0 mm | - | - | - |
| 1777992022 | 20.56° C | 80% | 1016.9 hPa | 0 mm | - | - | - |
| 1777991411 | 20.56° C | 79% | 1017 hPa | 0 mm | - | - | - |
| 1777990799 | 20.56° C | 79% | 1017 hPa | 0 mm | - | - | - |
| 1777989576 | 21.67° C | 78% | 1017.1 hPa | 0 mm | - | - | - |
| 1777988964 | 21.11° C | 78% | 1017.1 hPa | 0 mm | - | - | - |
| 1777988352 | 21.11° C | 79% | 1017.1 hPa | 0 mm | - | - | - |
| 1777987740 | 21.67° C | 78% | 1017.3 hPa | 0 mm | - | - | - |
| 1777987128 | 21.67° C | 78% | 1017.1 hPa | 0 mm | - | - | - |
| 1777986516 | 21.67° C | 79% | 1017.3 hPa | 0 mm | - | - | - |
* Rain latest hour (hover to see other rain measurements)
** Current wind speed in m/s (hover to see current wind gust speed)